Location: Kawakawa
(35.3830°S, 174.0670°E)
Time: 15:07:40
(UTC+12:00)

ISS - Pass Details

Date: 08 July 2022
Orbit: 412 x 420 km, 51.6° (Epoch: 15 August)

Event Time Altitude Azimuth Distance (km) Brightness Sun altitude
Rises 18:03:15 0° 224° (SW) 2,384 0.4 -7.9°
Reaches altitude 10° 18:05:24 10° 218° (SW) 1,512 -0.7 -8.3°
Maximum altitude 18:08:43 49° 141° (SE) 548 -3.5 -8.9°
Drops below altitude 10° 18:11:59 10° 64° (ENE) 1,493 -1.4 -9.6°
Enters shadow 18:13:13 - 60° (ENE) 1,984 -0.7 -9.8°
